Tracking 30995 objects as of 6-Jul-2025
HD Live streaming from Space Station
objects crossing your sky now

ANIK E2

Track ANIK E2 now!
ANIK E2 is classified as:


NORAD ID: 21222
Int'l Code: 1991-026A
Perigee: 36,094.2 km
Apogee: 36,140.8 km
Inclination: 13.8 °
Period: 1,452.7 minutes
Semi major axis: 42488 km
RCS: 12.1056 m2 (large)
Launch date: April 4, 1991
Source: Canada (CA)
Launch site: FRENCH GUIANA (FRGUI)

Inclined orbit; Anik is Inuit for "Little Brother"; 24 C-band, 16 Ku-band transponders.
Your satellite tracking list
Your tracking list is empty




NASA's NSSDC Master Catalog

Two Line Element Set (TLE):
1 21222U 91026A   25186.41106697 -.00000166  00000-0  00000-0 0  9997
2 21222  13.8010  14.9042 0005484  61.3779 288.4732  0.99128050113629
Source of the keplerian elements: AFSPC